| time (UTC) | temp F | wind direction | speed MPH | gust MPH | rain 1hr in | rain 24hr in | rain mn in | humidity % | barometer mb |
| 20260831232047 | 87 | 306 | 1.0 | 4.0 | 0.00 | 0.00 | 0.00 | 54 | 1010.0 |
| 20260831231531 | 88 | 303 | 0.0 | 3.0 | 0.00 | 0.00 | 0.00 | 55 | 1009.9 |
| 20260831231105 | 89 | 303 | 0.0 | 3.0 | 0.00 | 0.00 | 0.00 | 53 | 1009.8 |
| 20260831230526 | 89 | 304 | 0.0 | 3.0 | 0.00 | 0.00 | 0.00 | 53 | 1009.9 |
| 20260831230046 | 89 | 304 | 0.0 | 5.0 | 0.00 | 0.00 | 0.00 | 56 | 1009.9 |
| 20260831225529 | 89 | 304 | 0.0 | 5.0 | 0.00 | 0.00 | 0.00 | 54 | 1009.9 |
| 20260831225019 | 89 | 309 | 0.0 | 3.0 | 0.00 | 0.00 | 0.00 | 56 | 1009.9 |
| 20260831224508 | 89 | 309 | 0.0 | 3.0 | 0.00 | 0.00 | 0.00 | 54 | 1009.7 |
| 20260831224048 | 89 | 311 | 0.0 | 3.0 | 0.00 | 0.00 | 0.00 | 55 | 1009.9 |
| 20260831223531 | 89 | 311 | 0.0 | 4.0 | 0.00 | 0.00 | 0.00 | 52 | 1009.8 |
| 20260831223058 | 90 | 313 | 1.0 | 6.0 | 0.00 | 0.00 | 0.00 | 53 | 1009.8 |
| 20260831222510 | 90 | 315 | 2.0 | 6.0 | 0.00 | 0.00 | 0.00 | 52 | 1009.6 |
| 20260831222052 | 91 | 306 | 2.0 | 4.0 | 0.00 | 0.00 | 0.00 | 52 | 1009.6 |
| 20260831221527 | 91 | 304 | 1.0 | 3.0 | 0.00 | 0.00 | 0.00 | 52 | 1009.7 |
| 20260831221002 | 90 | 279 | 0.0 | 5.0 | 0.00 | 0.00 | 0.00 | 56 | 1009.5 |
| 20260831220541 | 90 | 277 | 0.0 | 5.0 | 0.00 | 0.00 | 0.00 | 56 | 1009.5 |
| 20260831220006 | 91 | 312 | 1.0 | 4.0 | 0.00 | 0.00 | 0.00 | 53 | 1009.4 |
| 20260831215535 | 91 | 317 | 1.0 | 4.0 | 0.00 | 0.00 | 0.00 | 53 | 1009.5 |
| 20260831215014 | 91 | 319 | 0.0 | 5.0 | 0.00 | 0.00 | 0.00 | 53 | 1009.4 |
| 20260831214553 | 92 | 272 | 0.0 | 2.0 | 0.00 | 0.00 | 0.00 | 52 | 1009.3 |
| 20260831214026 | 91 | 271 | 0.0 | 3.0 | 0.00 | 0.00 | 0.00 | 52 | 1009.4 |
| 20260831213545 | 91 | 271 | 1.0 | 3.0 | 0.00 | 0.00 | 0.00 | 54 | 1009.3 |
| 20260831213018 | 91 | 300 | 0.0 | 3.0 | 0.00 | 0.00 | 0.00 | 54 | 1009.2 |
| 20260831212550 | 91 | 319 | 1.0 | 4.0 | 0.00 | 0.00 | 0.00 | 54 | 1009.3 |
| 20260831212032 | 91 | 316 | 2.0 | 4.0 | 0.00 | 0.00 | 0.00 | 53 | 1009.3 |
| 20260831211601 | 91 | 310 | 0.0 | 4.0 | 0.00 | 0.00 | 0.00 | 57 | 1009.3 |
| 20260831211000 | 91 | 321 | 2.0 | 4.0 | 0.00 | 0.00 | 0.00 | 55 | 1009.2 |
| 20260831210544 | 91 | 304 | 0.0 | 4.0 | 0.00 | 0.00 | 0.00 | 52 | 1009.2 |
| 20260831210009 | 91 | 315 | 2.0 | 5.0 | 0.00 | 0.00 | 0.00 | 54 | 1009.3 |
| 20260831205539 | 91 | 309 | 1.0 | 5.0 | 0.00 | 0.00 | 0.00 | 53 | 1009.2 |
| 20260831205013 | 91 | 272 | 0.0 | 3.0 | 0.00 | 0.00 | 0.00 | 52 | 1009.1 |
| 20260831204533 | 91 | 304 | 1.0 | 4.0 | 0.00 | 0.00 | 0.00 | 60 | 1009.2 |
| 20260831204059 | 91 | 306 | 1.0 | 4.0 | 0.00 | 0.00 | 0.00 | 55 | 1009.2 |
| 20260831203526 | 91 | 312 | 0.0 | 5.0 | 0.00 | 0.00 | 0.00 | 59 | 1009.2 |
| 20260831203000 | 91 | 300 | 2.0 | 4.0 | 0.00 | 0.00 | 0.00 | 55 | 1009.3 |
| 20260831202547 | 91 | 178 | 0.0 | 3.0 | 0.00 | 0.00 | 0.00 | 57 | 1009.2 |
| 20260831202012 | 90 | 242 | 0.0 | 5.0 | 0.00 | 0.00 | 0.00 | 56 | 1009.3 |
| 20260831201539 | 90 | 292 | 2.0 | 6.0 | 0.00 | 0.00 | 0.00 | 56 | 1009.3 |
| 20260831201013 | 90 | 311 | 3.0 | 6.0 | 0.00 | 0.00 | 0.00 | 54 | 1009.3 |
| 20260831200532 | 90 | 303 | 2.0 | 6.0 | 0.00 | 0.00 | 0.00 | 53 | 1009.2 |
| 20260831200056 | 90 | 309 | 3.0 | 6.0 | 0.00 | 0.00 | 0.00 | 56 | 1009.2 |
| 20260831195528 | 90 | 337 | 2.0 | 5.0 | 0.00 | 0.00 | 0.00 | 54 | 1009.3 |
| 20260831195001 | 90 | 299 | 1.0 | 6.0 | 0.00 | 0.00 | 0.00 | 57 | 1009.2 |
| 20260831194521 | 90 | 311 | 3.0 | 6.0 | 0.00 | 0.00 | 0.00 | 53 | 1009.2 |
| 20260831194041 | 91 | 306 | 1.0 | 4.0 | 0.00 | 0.00 | 0.00 | 53 | 1009.2 |
| 20260831193515 | 90 | 300 | 2.0 | 5.0 | 0.00 | 0.00 | 0.00 | 54 | 1009.1 |
| 20260831193041 | 90 | 314 | 1.0 | 5.0 | 0.00 | 0.00 | 0.00 | 56 | 1009.2 |
| 20260831192554 | 91 | 329 | 2.0 | 5.0 | 0.00 | 0.00 | 0.00 | 54 | 1009.1 |
| 20260831192026 | 91 | 315 | 1.0 | 4.0 | 0.00 | 0.00 | 0.00 | 56 | 1009.1 |
| 20260831191608 | 91 | 240 | 0.0 | 4.0 | 0.00 | 0.00 | 0.00 | 56 | 1009.2 |
| 20260831191019 | 90 | 306 | 0.0 | 4.0 | 0.00 | 0.00 | 0.00 | 55 | 1009.1 |
| 20260831190539 | 90 | 89 | 0.0 | 5.0 | 0.00 | 0.00 | 0.00 | 54 | 1009.0 |
| 20260831190013 | 90 | 321 | 1.0 | 5.0 | 0.00 | 0.00 | 0.00 | 59 | 1009.1 |
| 20260831185557 | 90 | 202 | 0.0 | 4.0 | 0.00 | 0.00 | 0.00 | 61 | 1009.1 |
| 20260831185031 | 90 | 310 | 2.0 | 4.0 | 0.00 | 0.00 | 0.00 | 61 | 1009.1 |
| 20260831184505 | 90 | 157 | 0.0 | 3.0 | 0.00 | 0.00 | 0.00 | 60 | 1009.1 |
| 20260831184048 | 89 | 146 | 0.0 | 3.0 | 0.00 | 0.00 | 0.00 | 62 | 1009.1 |
| 20260831183523 | 89 | 137 | 1.0 | 7.0 | 0.00 | 0.00 | 0.00 | 61 | 1009.0 |
| 20260831183043 | 89 | 302 | 0.0 | 7.0 | 0.00 | 0.00 | 0.00 | 64 | 1009.1 |
| 20260831182604 | 89 | 325 | 2.0 | 6.0 | 0.00 | 0.00 | 0.00 | 64 | 1009.0 |
| 20260831182013 | 88 | 119 | 1.0 | 6.0 | 0.00 | 0.00 | 0.00 | 67 | 1008.9 |
| 20260831181559 | 88 | 317 | 1.0 | 4.0 | 0.00 | 0.00 | 0.00 | 69 | 1009.0 |
| 20260831181048 | 87 | 136 | 1.0 | 4.0 | 0.00 | 0.00 | 0.00 | 70 | 1009.0 |
| 20260831180528 | 87 | 57 | 1.0 | 6.0 | 0.00 | 0.00 | 0.00 | 71 | 1009.0 |
| 20260831180050 | 87 | 349 | 2.0 | 6.0 | 0.00 | 0.00 | 0.00 | 71 | 1009.1 |
| 20260831175609 | 87 | 314 | 1.0 | 4.0 | 0.00 | 0.00 | 0.00 | 72 | 1009.2 |
| 20260831175019 | 86 | 296 | 0.0 | 5.0 | 0.00 | 0.00 | 0.00 | 74 | 1009.2 |
| 20260831174545 | 86 | 299 | 2.0 | 5.0 | 0.00 | 0.00 | 0.00 | 73 | 1009.3 |
| 20260831174101 | 86 | 286 | 1.0 | 3.0 | 0.00 | 0.00 | 0.00 | 76 | 1009.3 |
| 20260831173522 | 86 | 294 | 0.0 | 3.0 | 0.00 | 0.00 | 0.00 | 78 | 1009.3 |
| 20260831173002 | 85 | 308 | 1.0 | 5.0 | 0.00 | 0.00 | 0.00 | 76 | 1009.3 |
| 20260831172521 | 85 | 311 | 0.0 | 5.0 | 0.00 | 0.00 | 0.00 | 77 | 1009.4 |
| 20260831172042 | 85 | 319 | 1.0 | 4.0 | 0.00 | 0.00 | 0.00 | 75 | 1009.4 |
| 20260831171601 | 85 | 268 | 0.0 | 3.0 | 0.00 | 0.00 | 0.00 | 76 | 1009.4 |
| 20260831171013 | 85 | 298 | 0.0 | 4.0 | 0.00 | 0.00 | 0.00 | 76 | 1009.4 |
| 20260831170533 | 85 | 315 | 1.0 | 5.0 | 0.00 | 0.00 | 0.00 | 76 | 1009.4 |
| 20260831170051 | 85 | 346 | 1.0 | 5.0 | 0.00 | 0.00 | 0.00 | 77 | 1009.4 |
| 20260831165507 | 85 | 302 | 0.0 | 3.0 | 0.00 | 0.00 | 0.00 | 80 | 1009.4 |
| 20260831165044 | 85 | 146 | 0.0 | 3.0 | 0.00 | 0.00 | 0.00 | 78 | 1009.3 |
| 20260831164535 | 85 | 52 | 0.0 | 3.0 | 0.00 | 0.00 | 0.00 | 79 | 1009.4 |
| 20260831164041 | 85 | 317 | 0.0 | 6.0 | 0.00 | 0.00 | 0.00 | 77 | 1009.3 |
| 20260831163600 | 85 | 89 | 1.0 | 6.0 | 0.00 | 0.00 | 0.00 | 77 | 1009.2 |
| 20260831163022 | 84 | 116 | 0.0 | 4.0 | 0.00 | 0.00 | 0.00 | 79 | 1009.2 |
| 20260831162508 | 84 | 119 | 0.0 | 3.0 | 0.00 | 0.00 | 0.00 | 79 | 1009.2 |
| 20260831162031 | 84 | 150 | 0.0 | 2.0 | 0.00 | 0.00 | 0.00 | 79 | 1009.1 |
| 20260831161614 | 84 | 153 | 0.0 | 5.0 | 0.00 | 0.00 | 0.00 | 81 | 1009.0 |
| 20260831161024 | 83 | 150 | 1.0 | 5.0 | 0.00 | 0.00 | 0.00 | 80 | 1008.9 |
| 20260831160606 | 83 | 313 | 0.0 | 3.0 | 0.00 | 0.00 | 0.00 | 83 | 1009.0 |
| 20260831160040 | 83 | 313 | 0.0 | 3.0 | 0.00 | 0.00 | 0.00 | 80 | 1009.0 |
| 20260831155559 | 83 | 292 | 0.0 | 2.0 | 0.00 | 0.00 | 0.00 | 80 | 1009.0 |
| 20260831155007 | 83 | 300 | 0.0 | 2.0 | 0.00 | 0.00 | 0.00 | 82 | 1009.0 |
| 20260831154553 | 83 | 290 | 1.0 | 4.0 | 0.00 | 0.00 | 0.00 | 83 | 1009.0 |
| 20260831154030 | 82 | 299 | 2.0 | 4.0 | 0.00 | 0.00 | 0.00 | 82 | 1009.1 |
| 20260831153609 | 82 | 286 | 0.0 | 3.0 | 0.00 | 0.00 | 0.00 | 83 | 1009.0 |
| 20260831153018 | 82 | 304 | 0.0 | 3.0 | 0.00 | 0.00 | 0.00 | 85 | 1008.9 |
| 20260831152554 | 82 | 318 | 0.0 | 3.0 | 0.00 | 0.00 | 0.00 | 84 | 1008.9 |
| 20260831152037 | 81 | 320 | 1.0 | 3.0 | 0.00 | 0.00 | 0.00 | 84 | 1008.8 |
| 20260831151559 | 81 | 101 | 0.0 | 5.0 | 0.00 | 0.00 | 0.00 | 86 | 1008.8 |
| 20260831151012 | 81 | 310 | 1.0 | 5.0 | 0.00 | 0.00 | 0.00 | 84 | 1008.9 |
| 20260831150552 | 81 | 300 | 1.0 | 3.0 | 0.00 | 0.00 | 0.00 | 85 | 1008.9 |
| 20260831150030 | 80 | 324 | 0.0 | 5.0 | 0.00 | 0.00 | 0.00 | 86 | 1008.8 |
| 20260831145608 | 80 | 355 | 1.0 | 5.0 | 0.00 | 0.00 | 0.00 | 85 | 1008.8 |
| 20260831145018 | 80 | 304 | 0.0 | 5.0 | 0.00 | 0.00 | 0.00 | 85 | 1008.6 |
| 20260831144552 | 79 | 313 | 1.0 | 6.0 | 0.00 | 0.00 | 0.00 | 86 | 1008.5 |
| 20260831144005 | 79 | 315 | 0.0 | 5.0 | 0.00 | 0.00 | 0.00 | 87 | 1008.3 |
| 20260831143554 | 79 | 313 | 1.0 | 5.0 | 0.00 | 0.00 | 0.00 | 85 | 1008.3 |
| 20260831143025 | 79 | 323 | 1.0 | 4.0 | 0.00 | 0.00 | 0.00 | 85 | 1008.2 |
| 20260831142547 | 79 | 343 | 0.0 | 3.0 | 0.00 | 0.00 | 0.00 | 86 | 1008.1 |
| 20260831142037 | 79 | 309 | 0.0 | 4.0 | 0.00 | 0.00 | 0.00 | 88 | 1008.1 |
| 20260831141529 | 79 | 306 | 0.0 | 6.0 | 0.00 | 0.00 | 0.00 | 87 | 1008.0 |
| 20260831141105 | 79 | 300 | 0.0 | 6.0 | 0.00 | 0.00 | 0.00 | 87 | 1008.0 |
| 20260831140514 | 78 | 300 | 1.0 | 4.0 | 0.00 | 0.00 | 0.00 | 87 | 1008.1 |
| 20260831140038 | 78 | 311 | 0.0 | 3.0 | 0.00 | 0.00 | 0.00 | 88 | 1008.0 |
| 20260831135515 | 78 | 310 | 0.0 | 4.0 | 0.00 | 0.00 | 0.00 | 87 | 1007.8 |
| 20260831135009 | 78 | 306 | 0.0 | 4.0 | 0.00 | 0.00 | 0.00 | 88 | 1007.9 |
| 20260831134542 | 77 | 306 | 1.0 | 3.0 | 0.00 | 0.00 | 0.00 | 88 | 1007.8 |
| 20260831134015 | 77 | 307 | 0.0 | 4.0 | 0.00 | 0.00 | 0.00 | 90 | 1007.7 |
| 20260831133541 | 76 | 302 | 1.0 | 6.0 | 0.00 | 0.00 | 0.00 | 89 | 1007.7 |
| 20260831133112 | 76 | 302 | 2.0 | 8.0 | 0.00 | 0.00 | 0.00 | 89 | 1007.6 |
| 20260831132543 | 76 | 317 | 2.0 | 8.0 | 0.00 | 0.00 | 0.00 | 90 | 1007.5 |
| 20260831132024 | 75 | 306 | 2.0 | 6.0 | 0.00 | 0.00 | 0.00 | 90 | 1007.6 |
| 20260831131554 | 75 | 312 | 0.0 | 7.0 | 0.00 | 0.00 | 0.00 | 91 | 1007.6 |
| 20260831131007 | 75 | 304 | 2.0 | 5.0 | 0.00 | 0.00 | 0.00 | 91 | 1007.5 |
| 20260831130531 | 74 | 316 | 1.0 | 5.0 | 0.00 | 0.00 | 0.00 | 92 | 1007.4 |
| 20260831130009 | 74 | 293 | 2.0 | 5.0 | 0.00 | 0.00 | 0.00 | 93 | 1007.3 |
| 20260831125556 | 74 | 331 | 1.0 | 5.0 | 0.00 | 0.00 | 0.00 | 93 | 1007.2 |
| 20260831125028 | 73 | 292 | 2.0 | 4.0 | 0.00 | 0.00 | 0.00 | 94 | 1007.2 |
| 20260831124509 | 73 | 307 | 1.0 | 5.0 | 0.00 | 0.00 | 0.00 | 94 | 1007.0 |
| 20260831124045 | 73 | 292 | 1.0 | 5.0 | 0.00 | 0.00 | 0.00 | 94 | 1007.1 |
| 20260831123526 | 73 | 311 | 1.0 | 5.0 | 0.00 | 0.00 | 0.00 | 95 | 1007.2 |
| 20260831123059 | 73 | 323 | 2.0 | 5.0 | 0.00 | 0.00 | 0.00 | 95 | 1007.2 |
| 20260831122541 | 72 | 317 | 0.0 | 3.0 | 0.00 | 0.00 | 0.00 | 95 | 1007.2 |
| 20260831122009 | 72 | 317 | 0.0 | 3.0 | 0.00 | 0.00 | 0.00 | 96 | 1007.1 |
| 20260831121554 | 72 | 321 | 0.0 | 0.0 | 0.00 | 0.00 | 0.00 | 95 | 1007.0 |
| 20260831121027 | 72 | 321 | 0.0 | 3.0 | 0.00 | 0.00 | 0.00 | 95 | 1007.0 |
| 20260831120511 | 72 | 321 | 0.0 | 3.0 | 0.00 | 0.00 | 0.00 | 95 | 1007.0 |
| 20260831120044 | 72 | 321 | 0.0 | 2.0 | 0.00 | 0.00 | 0.00 | 95 | 1007.0 |
| 20260831115529 | 72 | 322 | 0.0 | 3.0 | 0.00 | 0.00 | 0.00 | 95 | 1006.8 |
| 20260831115056 | 72 | 323 | 1.0 | 3.0 | 0.00 | 0.00 | 0.00 | 95 | 1006.7 |
| 20260831114525 | 72 | 306 | 0.0 | 3.0 | 0.00 | 0.00 | 0.00 | 95 | 1006.6 |
| 20260831114039 | 71 | 306 | 0.0 | 3.0 | 0.00 | 0.00 | 0.00 | 95 | 1006.5 |
| 20260831113532 | 72 | 310 | 0.0 | 0.0 | 0.00 | 0.00 | 0.00 | 94 | 1006.4 |
| 20260831113055 | 72 | 310 | 0.0 | 0.0 | 0.00 | 0.00 | 0.00 | 94 | 1006.5 |
| 20260831112529 | 72 | 310 | 0.0 | 0.0 | 0.00 | 0.00 | 0.00 | 95 | 1006.4 |
| 20260831112014 | 72 | 310 | 0.0 | 1.0 | 0.00 | 0.00 | 0.00 | 95 | 1006.3 |
| 20260831111601 | 72 | 311 | 0.0 | 2.0 | 0.00 | 0.00 | 0.00 | 95 | 1006.4 |
| 20260831111001 | 72 | 309 | 0.0 | 2.0 | 0.00 | 0.00 | 0.00 | 94 | 1006.2 |
| 20260831110556 | 72 | 310 | 0.0 | 1.0 | 0.00 | 0.00 | 0.00 | 94 | 1006.1 |
| 20260831110040 | 72 | 310 | 0.0 | 2.0 | 0.00 | 0.00 | 0.00 | 94 | 1005.9 |
| 20260831105556 | 72 | 309 | 0.0 | 2.0 | 0.00 | 0.00 | 0.00 | 94 | 1005.9 |
| 20260831105032 | 72 | 301 | 0.0 | 2.0 | 0.00 | 0.00 | 0.00 | 94 | 1005.8 |
| 20260831104557 | 72 | 279 | 0.0 | 2.0 | 0.00 | 0.00 | 0.00 | 94 | 1005.9 |
| 20260831104043 | 72 | 275 | 0.0 | 3.0 | 0.00 | 0.00 | 0.00 | 94 | 1005.9 |
| 20260831103522 | 72 | 271 | 0.0 | 3.0 | 0.00 | 0.00 | 0.00 | 94 | 1006.0 |
| 20260831103105 | 73 | 333 | 1.0 | 3.0 | 0.00 | 0.00 | 0.00 | 95 | 1006.0 |
| 20260831102516 | 73 | 313 | 0.0 | 4.0 | 0.00 | 0.00 | 0.00 | 94 | 1006.0 |
| 20260831102005 | 73 | 293 | 1.0 | 4.0 | 0.00 | 0.00 | 0.00 | 95 | 1006.1 |
| 20260831101536 | 72 | 263 | 0.0 | 2.0 | 0.00 | 0.00 | 0.00 | 94 | 1006.0 |
| 20260831101054 | 72 | 262 | 0.0 | 2.0 | 0.00 | 0.00 | 0.00 | 94 | 1005.8 |
| 20260831100504 | 73 | 261 | 0.0 | 2.0 | 0.00 | 0.00 | 0.00 | 94 | 1006.0 |
| 20260831100041 | 73 | 260 | 0.0 | 5.0 | 0.00 | 0.00 | 0.00 | 94 | 1006.0 |
| 20260831095520 | 73 | 257 | 0.0 | 5.0 | 0.00 | 0.00 | 0.00 | 94 | 1005.9 |
| 20260831095040 | 73 | 291 | 0.0 | 3.0 | 0.00 | 0.00 | 0.00 | 94 | 1005.8 |
| 20260831094606 | 73 | 305 | 0.0 | 3.0 | 0.00 | 0.00 | 0.00 | 94 | 1005.8 |
| 20260831094034 | 73 | 288 | 0.0 | 3.0 | 0.00 | 0.00 | 0.00 | 94 | 1005.9 |
| 20260831093511 | 73 | 295 | 0.0 | 4.0 | 0.00 | 0.00 | 0.00 | 94 | 1006.0 |
| 20260831093053 | 73 | 318 | 1.0 | 4.0 | 0.00 | 0.00 | 0.00 | 94 | 1006.0 |
| 20260831092525 | 73 | 288 | 0.0 | 1.0 | 0.00 | 0.00 | 0.00 | 94 | 1006.0 |
| 20260831092100 | 73 | 306 | 0.0 | 1.0 | 0.00 | 0.00 | 0.00 | 94 | 1006.0 |
| 20260831091526 | 73 | 321 | 0.0 | 3.0 | 0.00 | 0.00 | 0.00 | 93 | 1005.9 |
| 20260831091015 | 73 | 321 | 0.0 | 3.0 | 0.00 | 0.00 | 0.00 | 93 | 1005.9 |
| 20260831090536 | 73 | 186 | 0.0 | 3.0 | 0.00 | 0.00 | 0.00 | 93 | 1005.8 |
| 20260831090057 | 73 | 277 | 0.0 | 2.0 | 0.00 | 0.00 | 0.00 | 93 | 1005.8 |
| 20260831085521 | 73 | 272 | 0.0 | 5.0 | 0.00 | 0.00 | 0.00 | 93 | 1005.9 |
| 20260831085050 | 73 | 311 | 1.0 | 4.0 | 0.00 | 0.00 | 0.00 | 93 | 1005.9 |
| 20260831084612 | 73 | 297 | 0.0 | 5.0 | 0.00 | 0.00 | 0.00 | 93 | 1005.9 |
| 20260831084020 | 73 | 297 | 0.0 | 5.0 | 0.00 | 0.00 | 0.00 | 94 | 1005.9 |
| 20260831083540 | 73 | 261 | 0.0 | 6.0 | 0.00 | 0.00 | 0.00 | 93 | 1005.8 |
| 20260831083111 | 72 | 282 | 0.0 | 4.0 | 0.00 | 0.00 | 0.00 | 93 | 1005.7 |
| 20260831082535 | 72 | 321 | 1.0 | 4.0 | 0.00 | 0.00 | 0.00 | 93 | 1005.7 |
| 20260831082054 | 72 | 236 | 1.0 | 4.0 | 0.00 | 0.00 | 0.00 | 93 | 1005.6 |
| 20260831081504 | 73 | 266 | 1.0 | 4.0 | 0.00 | 0.00 | 0.00 | 93 | 1005.6 |
| 20260831081027 | 73 | 275 | 0.0 | 3.0 | 0.00 | 0.00 | 0.00 | 93 | 1005.7 |
| 20260831080544 | 73 | 264 | 0.0 | 4.0 | 0.00 | 0.00 | 0.00 | 93 | 1005.7 |
| 20260831080104 | 73 | 301 | 0.0 | 4.0 | 0.00 | 0.00 | 0.00 | 93 | 1005.6 |
| 20260831075538 | 73 | 279 | 1.0 | 4.0 | 0.00 | 0.00 | 0.00 | 93 | 1005.7 |
| 20260831075003 | 73 | 311 | 1.0 | 4.0 | 0.00 | 0.00 | 0.00 | 92 | 1005.7 |
| 20260831074538 | 73 | 338 | 1.0 | 4.0 | 0.00 | 0.00 | 0.00 | 92 | 1005.7 |
| 20260831074006 | 73 | 183 | 1.0 | 4.0 | 0.00 | 0.00 | 0.00 | 92 | 1005.7 |
| 20260831073526 | 73 | 206 | 1.0 | 4.0 | 0.00 | 0.00 | 0.00 | 92 | 1005.6 |
| 20260831073057 | 73 | 211 | 1.0 | 4.0 | 0.00 | 0.00 | 0.00 | 92 | 1005.7 |
| 20260831072520 | 73 | 173 | 0.0 | 5.0 | 0.00 | 0.00 | 0.00 | 92 | 1005.6 |
| 20260831072039 | 73 | 281 | 0.0 | 5.0 | 0.00 | 0.00 | 0.00 | 92 | 1005.6 |
| 20260831071559 | 73 | 257 | 1.0 | 4.0 | 0.00 | 0.00 | 0.00 | 92 | 1005.7 |
| 20260831071010 | 73 | 185 | 2.0 | 6.0 | 0.00 | 0.00 | 0.00 | 92 | 1005.7 |
| 20260831070545 | 73 | 300 | 1.0 | 6.0 | 0.00 | 0.00 | 0.00 | 92 | 1005.8 |
| 20260831065551 | 73 | 198 | 1.0 | 5.0 | 0.00 | 0.00 | 0.00 | 91 | 1006.0 |
| 20260831065025 | 73 | 292 | 1.0 | 6.0 | 0.00 | 0.00 | 0.00 | 91 | 1006.0 |
| 20260831064554 | 73 | 297 | 2.0 | 6.0 | 0.00 | 0.00 | 0.00 | 91 | 1006.2 |
| 20260831064011 | 73 | 323 | 2.0 | 6.0 | 0.00 | 0.00 | 0.00 | 91 | 1006.2 |
| 20260831063502 | 73 | 231 | 2.0 | 6.0 | 0.00 | 0.00 | 0.00 | 91 | 1006.2 |
| 20260831063030 | 73 | 211 | 1.0 | 5.0 | 0.00 | 0.00 | 0.00 | 91 | 1006.3 |
| 20260831062518 | 73 | 184 | 1.0 | 5.0 | 0.00 | 0.00 | 0.00 | 91 | 1006.3 |
| 20260831062036 | 73 | 299 | 1.0 | 5.0 | 0.00 | 0.00 | 0.00 | 91 | 1006.4 |
| 20260831061510 | 73 | 239 | 1.0 | 4.0 | 0.00 | 0.00 | 0.00 | 90 | 1006.5 |
| 20260831061033 | 73 | 238 | 0.0 | 4.0 | 0.00 | 0.00 | 0.00 | 90 | 1006.5 |
| 20260831060503 | 73 | 271 | 1.0 | 5.0 | 0.00 | 0.00 | 0.00 | 90 | 1006.5 |
| 20260831060048 | 73 | 169 | 2.0 | 5.0 | 0.00 | 0.00 | 0.00 | 90 | 1006.6 |
| 20260831055519 | 73 | 198 | 0.0 | 3.0 | 0.00 | 0.00 | 0.00 | 90 | 1006.6 |
| 20260831055039 | 73 | 202 | 0.0 | 3.0 | 0.00 | 0.00 | 0.00 | 90 | 1006.6 |
| 20260831054600 | 73 | 204 | 1.0 | 5.0 | 0.00 | 0.00 | 0.00 | 90 | 1006.6 |
| 20260831054025 | 73 | 297 | 1.0 | 5.0 | 0.00 | 0.00 | 0.00 | 89 | 1006.8 |
| 20260831053558 | 73 | 283 | 2.0 | 5.0 | 0.00 | 0.00 | 0.00 | 89 | 1006.7 |
| 20260831053007 | 74 | 175 | 1.0 | 5.0 | 0.00 | 0.00 | 0.00 | 89 | 1006.9 |
| 20260831052544 | 74 | 141 | 1.0 | 5.0 | 0.00 | 0.00 | 0.00 | 89 | 1007.0 |
| 20260831052103 | 74 | 321 | 2.0 | 5.0 | 0.00 | 0.00 | 0.00 | 89 | 1007.0 |
| 20260831051538 | 74 | 167 | 1.0 | 5.0 | 0.00 | 0.00 | 0.00 | 89 | 1007.0 |
| 20260831051011 | 74 | 215 | 0.0 | 3.0 | 0.00 | 0.00 | 0.00 | 89 | 1007.1 |
| 20260831050535 | 74 | 284 | 0.0 | 5.0 | 0.00 | 0.00 | 0.00 | 89 | 1007.2 |
| 20260831050052 | 74 | 298 | 1.0 | 5.0 | 0.00 | 0.00 | 0.00 | 89 | 1007.2 |
| 20260831045502 | 74 | 223 | 1.0 | 4.0 | 0.00 | 0.00 | 0.00 | 89 | 1007.2 |
| 20260831045042 | 74 | 197 | 0.0 | 5.0 | 0.00 | 0.00 | 0.00 | 89 | 1007.2 |
| 20260831044516 | 74 | 315 | 1.0 | 5.0 | 0.00 | 0.00 | 0.00 | 89 | 1007.2 |
| 20260831044037 | 74 | 175 | 1.0 | 5.0 | 0.00 | 0.00 | 0.00 | 89 | 1007.3 |
| 20260831043600 | 74 | 232 | 0.0 | 5.0 | 0.00 | 0.00 | 0.00 | 89 | 1007.3 |
| 20260831043030 | 74 | 207 | 1.0 | 5.0 | 0.00 | 0.00 | 0.00 | 89 | 1007.3 |
| 20260831042552 | 74 | 227 | 1.0 | 5.0 | 0.00 | 0.00 | 0.00 | 89 | 1007.3 |
| 20260831042011 | 74 | 242 | 1.0 | 5.0 | 0.00 | 0.00 | 0.00 | 89 | 1007.2 |
| 20260831041550 | 74 | 205 | 1.0 | 3.0 | 0.00 | 0.00 | 0.00 | 89 | 1007.2 |
| 20260831041100 | 74 | 228 | 1.0 | 4.0 | 0.00 | 0.00 | 0.00 | 89 | 1007.3 |
| 20260831040534 | 74 | 327 | 0.0 | 5.0 | 0.00 | 0.00 | 0.00 | 89 | 1007.3 |
| 20260831040058 | 74 | 248 | 1.0 | 5.0 | 0.00 | 0.00 | 0.00 | 89 | 1007.3 |
| 20260831035514 | 74 | 189 | 0.0 | 4.0 | 0.00 | 0.00 | 0.00 | 89 | 1007.2 |
| 20260831035051 | 74 | 269 | 1.0 | 4.0 | 0.00 | 0.00 | 0.00 | 89 | 1007.1 |
| 20260831034501 | 74 | 294 | 1.0 | 4.0 | 0.00 | 0.00 | 0.00 | 88 | 1007.2 |
| 20260831034027 | 74 | 169 | 2.0 | 5.0 | 0.00 | 0.00 | 0.00 | 88 | 1007.1 |
| 20260831033606 | 74 | 200 | 1.0 | 6.0 | 0.00 | 0.00 | 0.00 | 88 | 1007.1 |
| 20260831033027 | 74 | 173 | 2.0 | 7.0 | 0.00 | 0.00 | 0.00 | 88 | 1007.3 |
| 20260831032505 | 74 | 232 | 2.0 | 8.0 | 0.00 | 0.00 | 0.00 | 88 | 1007.3 |
| 20260831032033 | 74 | 169 | 0.0 | 5.0 | 0.00 | 0.00 | 0.00 | 87 | 1007.3 |
| 20260831031516 | 75 | 177 | 2.0 | 5.0 | 0.00 | 0.00 | 0.00 | 87 | 1007.3 |
| 20260831031048 | 75 | 168 | 1.0 | 6.0 | 0.00 | 0.00 | 0.00 | 87 | 1007.3 |
| 20260831030502 | 75 | 246 | 2.0 | 6.0 | 0.00 | 0.00 | 0.00 | 86 | 1007.1 |
| 20260831030028 | 75 | 183 | 1.0 | 10.0 | 0.00 | 0.00 | 0.00 | 86 | 1007.1 |
| 20260831025608 | 75 | 223 | 1.0 | 10.0 | 0.00 | 0.00 | 0.00 | 86 | 1007.0 |
| 20260831025024 | 75 | 273 | 3.0 | 9.0 | 0.00 | 0.00 | 0.00 | 86 | 1007.0 |
| 20260831024545 | 75 | 322 | 1.0 | 6.0 | 0.00 | 0.00 | 0.00 | 85 | 1007.2 |
| 20260831024029 | 75 | 232 | 1.0 | 5.0 | 0.00 | 0.00 | 0.00 | 85 | 1007.1 |
| 20260831023506 | 76 | 132 | 2.0 | 5.0 | 0.00 | 0.00 | 0.00 | 84 | 1007.1 |
| 20260831023045 | 76 | 192 | 1.0 | 6.0 | 0.00 | 0.00 | 0.00 | 84 | 1007.1 |
| 20260831022503 | 76 | 238 | 2.0 | 8.0 | 0.00 | 0.00 | 0.00 | 84 | 1007.2 |
| 20260831022035 | 76 | 350 | 2.0 | 12.0 | 0.00 | 0.00 | 0.00 | 84 | 1007.2 |
| 20260831021509 | 76 | 244 | 2.0 | 8.0 | 0.00 | 0.00 | 0.00 | 83 | 1007.2 |
| 20260831021044 | 76 | 189 | 1.0 | 7.0 | 0.00 | 0.00 | 0.00 | 83 | 1007.2 |
| 20260831020526 | 77 | 177 | 2.0 | 5.0 | 0.00 | 0.00 | 0.00 | 82 | 1007.2 |
| 20260831020103 | 77 | 211 | 1.0 | 5.0 | 0.00 | 0.00 | 0.00 | 82 | 1007.3 |
| 20260831015544 | 77 | 302 | 2.0 | 7.0 | 0.00 | 0.00 | 0.00 | 82 | 1007.3 |
| 20260831015022 | 77 | 269 | 3.0 | 7.0 | 0.00 | 0.00 | 0.00 | 81 | 1007.3 |
| 20260831014508 | 77 | 144 | 1.0 | 4.0 | 0.00 | 0.00 | 0.00 | 81 | 1007.3 |
| 20260831014051 | 78 | 162 | 1.0 | 5.0 | 0.00 | 0.00 | 0.00 | 80 | 1007.4 |
| 20260831013531 | 78 | 187 | 0.0 | 7.0 | 0.00 | 0.00 | 0.00 | 80 | 1007.3 |
| 20260831013015 | 78 | 163 | 1.0 | 6.0 | 0.00 | 0.00 | 0.00 | 79 | 1007.2 |
| 20260831012608 | 78 | 203 | 1.0 | 7.0 | 0.00 | 0.00 | 0.00 | 79 | 1007.1 |
| 20260831012044 | 79 | 244 | 1.0 | 7.0 | 0.00 | 0.00 | 0.00 | 79 | 1006.9 |
| 20260831011523 | 79 | 202 | 2.0 | 9.0 | 0.00 | 0.00 | 0.00 | 78 | 1007.0 |
| 20260831011008 | 79 | 329 | 2.0 | 9.0 | 0.00 | 0.00 | 0.00 | 77 | 1007.0 |
| 20260831010535 | 79 | 180 | 2.0 | 9.0 | 0.00 | 0.00 | 0.00 | 77 | 1006.9 |
| 20260831010035 | 80 | 321 | 2.0 | 9.0 | 0.00 | 0.00 | 0.00 | 76 | 1006.8 |
| 20260831005505 | 80 | 154 | 3.0 | 9.0 | 0.00 | 0.00 | 0.00 | 74 | 1006.6 |
| 20260831005047 | 81 | 188 | 2.0 | 12.0 | 0.00 | 0.00 | 0.00 | 73 | 1006.5 |
| 20260831004528 | 81 | 320 | 1.0 | 12.0 | 0.00 | 0.00 | 0.00 | 72 | 1006.5 |
| 20260831004104 | 81 | 180 | 2.0 | 7.0 | 0.00 | 0.00 | 0.00 | 71 | 1006.6 |
| 20260831003525 | 82 | 319 | 4.0 | 14.0 | 0.00 | 0.00 | 0.00 | 71 | 1006.7 |
| 20260831003101 | 82 | 240 | 3.0 | 14.0 | 0.00 | 0.00 | 0.00 | 71 | 1006.5 |
| 20260831002522 | 82 | 174 | 1.0 | 8.0 | 0.00 | 0.00 | 0.00 | 73 | 1006.4 |
| 20260831002051 | 82 | 238 | 1.0 | 8.0 | 0.00 | 0.00 | 0.00 | 72 | 1006.4 |
| 20260831001541 | 83 | 152 | 1.0 | 7.0 | 0.00 | 0.00 | 0.00 | 72 | 1006.2 |
| 20260831001012 | 83 | 176 | 1.0 | 7.0 | 0.00 | 0.00 | 0.00 | 71 | 1006.1 |
| 20260831000542 | 83 | 152 | 2.0 | 6.0 | 0.00 | 0.00 | 0.00 | 70 | 1006.1 |
| 20260831000031 | 84 | 202 | 2.0 | 8.0 | 0.00 | 0.00 | 0.00 | 69 | 1006.0 |
| 20260830235558 | 84 | 202 | 2.0 | 8.0 | 0.00 | 0.00 | 0.00 | 68 | 1006.0 |
| 20260830235027 | 85 | 149 | 2.0 | 7.0 | 0.00 | 0.00 | 0.00 | 68 | 1005.9 |
| 20260830234502 | 85 | 170 | 1.0 | 9.0 | 0.00 | 0.00 | 0.00 | 69 | 1005.9 |
| 20260830234021 | 85 | 278 | 2.0 | 9.0 | 0.00 | 0.00 | 0.00 | 69 | 1006.1 |
| 20260830233559 | 85 | 221 | 1.0 | 6.0 | 0.00 | 0.00 | 0.00 | 69 | 1006.1 |
| 20260830233016 | 85 | 275 | 2.0 | 8.0 | 0.00 | 0.00 | 0.00 | 68 | 1006.1 |
| 20260830232540 | 85 | 112 | 2.0 | 8.0 | 0.00 | 0.00 | 0.00 | 69 | 1006.1 |